Year,Month,Day,Hour,Minute,Value (Times are PST for temperature in C)
2010,07,20,00,00,14.60
2010,07,20,00,01,14.60
2010,07,20,00,02,14.60
2010,07,20,00,03,14.60
2010,07,20,00,04,14.60
2010,07,20,00,05,14.60
2010,07,20,00,06,14.60
2010,07,20,00,07,14.60
2010,07,20,00,08,14.60
2010,07,20,00,09,14.60
2010,07,20,00,10,14.60
2010,07,20,00,11,14.60
2010,07,20,00,12,14.60
2010,07,20,00,13,14.50
2010,07,20,00,14,14.50
2010,07,20,00,15,14.50
2010,07,20,00,16,14.50
2010,07,20,00,17,14.50
2010,07,20,00,18,14.50
2010,07,20,00,19,14.50
2010,07,20,00,20,14.50
2010,07,20,00,21,14.50
2010,07,20,00,22,14.50
2010,07,20,00,23,14.50
2010,07,20,00,24,14.50
2010,07,20,00,25,14.50
2010,07,20,00,26,14.50
2010,07,20,00,27,14.50
2010,07,20,00,28,14.50
2010,07,20,00,29,14.50
2010,07,20,00,30,14.50
2010,07,20,00,31,14.50
2010,07,20,00,32,14.50
2010,07,20,00,33,14.50
2010,07,20,00,34,14.50
2010,07,20,00,35,14.50
2010,07,20,00,36,14.50
2010,07,20,00,37,14.50
2010,07,20,00,38,14.50
2010,07,20,00,39,14.50
2010,07,20,00,40,14.50
2010,07,20,00,41,14.40
2010,07,20,00,42,14.40
2010,07,20,00,43,14.40
2010,07,20,00,44,14.40
2010,07,20,00,45,14.40
2010,07,20,00,46,14.40
2010,07,20,00,47,14.30
2010,07,20,00,48,14.30
2010,07,20,00,49,14.30
2010,07,20,00,50,14.30
2010,07,20,00,51,14.20
2010,07,20,00,52,14.20
2010,07,20,00,53,14.20
2010,07,20,00,54,14.20
2010,07,20,00,55,14.20
2010,07,20,00,56,14.20
2010,07,20,00,57,14.20
2010,07,20,00,58,14.20
2010,07,20,00,59,14.10
2010,07,20,01,00,14.10
2010,07,20,01,01,14.10
2010,07,20,01,02,14.10
2010,07,20,01,03,14.00
2010,07,20,01,04,14.00
2010,07,20,01,05,14.00
2010,07,20,01,06,14.00
2010,07,20,01,07,14.00
2010,07,20,01,08,14.00
2010,07,20,01,09,14.00
2010,07,20,01,10,14.00
2010,07,20,01,11,14.00
2010,07,20,01,12,14.00
2010,07,20,01,13,14.00
2010,07,20,01,14,14.00
2010,07,20,01,15,14.00
2010,07,20,01,16,14.00
2010,07,20,01,17,14.00
2010,07,20,01,18,14.00
2010,07,20,01,19,14.00
2010,07,20,01,20,14.00
2010,07,20,01,21,13.90
2010,07,20,01,22,13.90
2010,07,20,01,23,13.90
2010,07,20,01,24,13.90
2010,07,20,01,25,13.90
2010,07,20,01,26,13.90
2010,07,20,01,27,13.90
2010,07,20,01,28,13.90
2010,07,20,01,29,13.90
2010,07,20,01,30,13.80
2010,07,20,01,31,13.80
2010,07,20,01,32,13.80
2010,07,20,01,33,13.80
2010,07,20,01,34,13.80
2010,07,20,01,35,13.80
2010,07,20,01,36,13.70
2010,07,20,01,37,13.70
2010,07,20,01,38,13.70
2010,07,20,01,39,13.70
2010,07,20,01,40,13.70
2010,07,20,01,41,13.70
2010,07,20,01,42,13.70
2010,07,20,01,43,13.70
2010,07,20,01,44,13.70
2010,07,20,01,45,13.70
2010,07,20,01,46,13.70
2010,07,20,01,47,13.70
2010,07,20,01,48,13.70
2010,07,20,01,49,13.70
2010,07,20,01,50,13.70
2010,07,20,01,51,13.70
2010,07,20,01,52,13.70
2010,07,20,01,53,13.70
2010,07,20,01,54,13.70
2010,07,20,01,55,13.70
2010,07,20,01,56,13.60
2010,07,20,01,57,13.60
2010,07,20,01,58,13.60
2010,07,20,01,59,13.60
2010,07,20,02,00,13.60
2010,07,20,02,01,13.60
2010,07,20,02,02,13.60
2010,07,20,02,03,13.60
2010,07,20,02,04,13.60
2010,07,20,02,05,13.50
2010,07,20,02,06,13.50
2010,07,20,02,07,13.50
2010,07,20,02,08,13.50
2010,07,20,02,09,13.50
2010,07,20,02,10,13.50
2010,07,20,02,11,13.50
2010,07,20,02,12,13.50
2010,07,20,02,13,13.50
2010,07,20,02,14,13.50
2010,07,20,02,15,13.50
2010,07,20,02,16,13.50
2010,07,20,02,17,13.50
2010,07,20,02,18,13.50
2010,07,20,02,19,13.50
2010,07,20,02,20,13.50
2010,07,20,02,21,13.50
2010,07,20,02,22,13.40
2010,07,20,02,23,13.40
2010,07,20,02,24,13.40
2010,07,20,02,25,13.40
2010,07,20,02,26,13.40
2010,07,20,02,27,13.40
2010,07,20,02,28,13.40
2010,07,20,02,29,13.40
2010,07,20,02,30,13.40
2010,07,20,02,31,13.40
2010,07,20,02,32,13.40
2010,07,20,02,33,13.40
2010,07,20,02,34,13.40
2010,07,20,02,35,13.40
2010,07,20,02,36,13.40
2010,07,20,02,37,13.40
2010,07,20,02,38,13.40
2010,07,20,02,39,13.30
2010,07,20,02,40,13.30
2010,07,20,02,41,13.30
2010,07,20,02,42,13.30
2010,07,20,02,43,13.30
2010,07,20,02,44,13.30
2010,07,20,02,45,13.30
2010,07,20,02,46,13.30
2010,07,20,02,47,13.30
2010,07,20,02,48,13.30
2010,07,20,02,49,13.30
2010,07,20,02,50,13.30
2010,07,20,02,51,13.30
2010,07,20,02,52,13.20
2010,07,20,02,53,13.20
2010,07,20,02,54,13.20
2010,07,20,02,55,13.20
2010,07,20,02,56,13.20
2010,07,20,02,57,13.20
2010,07,20,02,58,13.10
2010,07,20,02,59,13.10
2010,07,20,03,00,13.10
2010,07,20,03,01,13.10
2010,07,20,03,02,13.10
2010,07,20,03,03,13.10
2010,07,20,03,04,13.10
2010,07,20,03,05,13.10
2010,07,20,03,06,13.10
2010,07,20,03,07,13.10
2010,07,20,03,08,13.10
2010,07,20,03,09,13.10
2010,07,20,03,10,13.20
2010,07,20,03,11,13.20
2010,07,20,03,12,13.20
2010,07,20,03,13,13.20
2010,07,20,03,14,13.20
2010,07,20,03,15,13.20
2010,07,20,03,16,13.20
2010,07,20,03,17,13.20
2010,07,20,03,18,13.20
2010,07,20,03,19,13.20
2010,07,20,03,20,13.20
2010,07,20,03,21,13.20
2010,07,20,03,22,13.20
2010,07,20,03,23,13.20
2010,07,20,03,24,13.10
2010,07,20,03,25,13.10
2010,07,20,03,26,13.10
2010,07,20,03,27,13.10
2010,07,20,03,28,13.10
2010,07,20,03,29,13.00
2010,07,20,03,30,13.00
2010,07,20,03,31,13.00
2010,07,20,03,32,13.00
2010,07,20,03,33,13.00
2010,07,20,03,34,12.90
2010,07,20,03,35,12.90
2010,07,20,03,36,12.90
2010,07,20,03,37,12.90
2010,07,20,03,38,12.80
2010,07,20,03,39,12.80
2010,07,20,03,40,12.80
2010,07,20,03,41,12.80
2010,07,20,03,42,12.80
2010,07,20,03,43,12.80
2010,07,20,03,44,12.80
2010,07,20,03,45,12.70
2010,07,20,03,46,12.70
2010,07,20,03,47,12.70
2010,07,20,03,48,12.70
2010,07,20,03,49,12.70
2010,07,20,03,50,12.70
2010,07,20,03,51,12.70
2010,07,20,03,52,12.70
2010,07,20,03,53,12.70
2010,07,20,03,54,12.60
2010,07,20,03,55,12.60
2010,07,20,03,56,12.60
2010,07,20,03,57,12.60
2010,07,20,03,58,12.60
2010,07,20,03,59,12.60
2010,07,20,04,00,12.70
2010,07,20,04,01,12.70
2010,07,20,04,02,12.70
2010,07,20,04,03,12.70
2010,07,20,04,04,12.70
2010,07,20,04,05,12.80
2010,07,20,04,06,12.80
2010,07,20,04,07,12.70
2010,07,20,04,08,12.70
2010,07,20,04,09,12.70
2010,07,20,04,10,12.70
2010,07,20,04,11,12.70
2010,07,20,04,12,12.70
2010,07,20,04,13,12.70
2010,07,20,04,14,12.70
2010,07,20,04,15,12.70
2010,07,20,04,16,12.70
2010,07,20,04,17,12.70
2010,07,20,04,18,12.70
2010,07,20,04,19,12.70
2010,07,20,04,20,12.70
2010,07,20,04,21,12.70
2010,07,20,04,22,12.70
2010,07,20,04,23,12.70
2010,07,20,04,24,12.70
2010,07,20,04,25,12.70
2010,07,20,04,26,12.70
2010,07,20,04,27,12.70
2010,07,20,04,28,12.70
2010,07,20,04,29,12.70
2010,07,20,04,30,12.70
2010,07,20,04,31,12.80
2010,07,20,04,32,12.80
2010,07,20,04,33,12.80
2010,07,20,04,34,12.80
2010,07,20,04,35,12.70
2010,07,20,04,36,12.70
2010,07,20,04,37,12.70
2010,07,20,04,38,12.70
2010,07,20,04,39,12.70
2010,07,20,04,40,12.60
2010,07,20,04,41,12.60
2010,07,20,04,42,12.60
2010,07,20,04,43,12.60
2010,07,20,04,44,12.60
2010,07,20,04,45,12.50
2010,07,20,04,46,12.50
2010,07,20,04,47,12.40
2010,07,20,04,48,12.40
2010,07,20,04,49,12.40
2010,07,20,04,50,12.40
2010,07,20,04,51,12.40
2010,07,20,04,52,12.40
2010,07,20,04,53,12.40
2010,07,20,04,54,12.40
2010,07,20,04,55,12.30
2010,07,20,04,56,12.30
2010,07,20,04,57,12.30
2010,07,20,04,58,12.40
2010,07,20,04,59,12.40
2010,07,20,05,00,12.40
2010,07,20,05,01,12.40
2010,07,20,05,02,12.40
2010,07,20,05,03,12.40
2010,07,20,05,04,12.30
2010,07,20,05,05,12.30
2010,07,20,05,06,12.30
2010,07,20,05,07,12.30
2010,07,20,05,08,12.30
2010,07,20,05,09,12.30
2010,07,20,05,10,12.30
2010,07,20,05,11,12.30
2010,07,20,05,12,12.30
2010,07,20,05,13,12.30
2010,07,20,05,14,12.30
2010,07,20,05,15,12.30
2010,07,20,05,16,12.30
2010,07,20,05,17,12.30
2010,07,20,05,18,12.30
2010,07,20,05,19,12.30
2010,07,20,05,20,12.30
2010,07,20,05,21,12.30
2010,07,20,05,22,12.30
2010,07,20,05,23,12.30
2010,07,20,05,24,12.30
2010,07,20,05,25,12.30
2010,07,20,05,26,12.30
2010,07,20,05,27,12.30
2010,07,20,05,28,12.40
2010,07,20,05,29,12.40
2010,07,20,05,30,12.40
2010,07,20,05,31,12.40
2010,07,20,05,32,12.40
2010,07,20,05,33,12.40
2010,07,20,05,34,12.40
2010,07,20,05,35,12.40
2010,07,20,05,36,12.40
2010,07,20,05,37,12.40
2010,07,20,05,38,12.40
2010,07,20,05,39,12.40
2010,07,20,05,40,12.40
2010,07,20,05,41,12.40
2010,07,20,05,42,12.30
2010,07,20,05,43,12.30
2010,07,20,05,44,12.30
2010,07,20,05,45,12.30
2010,07,20,05,46,12.30
2010,07,20,05,47,12.30
2010,07,20,05,48,12.20
2010,07,20,05,49,12.20
2010,07,20,05,50,12.10
2010,07,20,05,51,12.10
2010,07,20,05,52,12.10
2010,07,20,05,53,12.00
2010,07,20,05,54,12.00
2010,07,20,05,55,12.00
2010,07,20,05,56,11.90
2010,07,20,05,57,11.90
2010,07,20,05,58,11.90
2010,07,20,05,59,11.90
2010,07,20,06,00,11.90
2010,07,20,06,01,11.80
2010,07,20,06,02,11.80
2010,07,20,06,03,11.80
2010,07,20,06,04,11.80
2010,07,20,06,05,11.80
2010,07,20,06,06,11.70
2010,07,20,06,07,11.70
2010,07,20,06,08,11.70
2010,07,20,06,09,11.70
2010,07,20,06,10,11.70
2010,07,20,06,11,11.70
2010,07,20,06,12,11.70
2010,07,20,06,13,11.60
2010,07,20,06,14,11.60
2010,07,20,06,15,11.60
2010,07,20,06,16,11.60
2010,07,20,06,17,11.60
2010,07,20,06,18,11.60
2010,07,20,06,19,11.60
2010,07,20,06,20,11.60
2010,07,20,06,21,11.60
2010,07,20,06,22,11.60
2010,07,20,06,23,11.60
2010,07,20,06,24,11.60
2010,07,20,06,25,11.60
2010,07,20,06,26,11.60
2010,07,20,06,27,11.60
2010,07,20,06,28,11.60
2010,07,20,06,29,11.60
2010,07,20,06,30,11.60
2010,07,20,06,31,11.60
2010,07,20,06,32,11.60
2010,07,20,06,33,11.60
2010,07,20,06,34,11.60
2010,07,20,06,35,11.60
2010,07,20,06,36,11.60
2010,07,20,06,37,11.60
2010,07,20,06,38,11.60
2010,07,20,06,39,11.60
2010,07,20,06,40,11.60
2010,07,20,06,41,11.60
2010,07,20,06,42,11.70
2010,07,20,06,43,11.70
2010,07,20,06,44,11.70
2010,07,20,06,45,11.70
2010,07,20,06,46,11.70
2010,07,20,06,47,11.70
2010,07,20,06,48,11.70
2010,07,20,06,49,11.80
2010,07,20,06,50,11.80
2010,07,20,06,51,11.80
2010,07,20,06,52,11.80
2010,07,20,06,53,11.80
2010,07,20,06,54,11.80
2010,07,20,06,55,11.80
2010,07,20,06,56,11.80
2010,07,20,06,57,11.80
2010,07,20,06,58,11.80
2010,07,20,06,59,11.80
2010,07,20,07,00,11.80
2010,07,20,07,01,11.90
2010,07,20,07,02,11.90
2010,07,20,07,03,11.90
2010,07,20,07,04,11.90
2010,07,20,07,05,11.90
2010,07,20,07,06,12.00
2010,07,20,07,07,12.00
2010,07,20,07,08,12.00
2010,07,20,07,09,12.00
2010,07,20,07,10,12.00
2010,07,20,07,11,12.00
2010,07,20,07,12,12.00
2010,07,20,07,13,12.00
2010,07,20,07,14,12.00
2010,07,20,07,15,12.00
2010,07,20,07,16,12.00
2010,07,20,07,17,12.10
2010,07,20,07,18,12.10
2010,07,20,07,19,12.10
2010,07,20,07,20,12.20
2010,07,20,07,21,12.20
2010,07,20,07,22,12.30
2010,07,20,07,23,12.30
2010,07,20,07,24,12.30
2010,07,20,07,25,12.40
2010,07,20,07,26,12.40
2010,07,20,07,27,12.40
2010,07,20,07,28,12.50
2010,07,20,07,29,12.60
2010,07,20,07,30,12.70
2010,07,20,07,31,12.80
2010,07,20,07,32,12.90
2010,07,20,07,33,13.00
2010,07,20,07,34,13.10
2010,07,20,07,35,13.10
2010,07,20,07,36,13.20
2010,07,20,07,37,13.30
2010,07,20,07,38,13.30
2010,07,20,07,39,13.30
2010,07,20,07,40,13.30
2010,07,20,07,41,13.40
2010,07,20,07,42,13.40
2010,07,20,07,43,13.50
2010,07,20,07,44,13.50
2010,07,20,07,45,13.60
2010,07,20,07,46,13.60
2010,07,20,07,47,13.60
2010,07,20,07,48,13.60
2010,07,20,07,49,13.60
2010,07,20,07,50,13.60
2010,07,20,07,51,13.60
2010,07,20,07,52,13.60
2010,07,20,07,53,13.60
2010,07,20,07,54,13.70
2010,07,20,07,55,13.70
2010,07,20,07,56,13.60
2010,07,20,07,57,13.60
2010,07,20,07,58,13.60
2010,07,20,07,59,13.60
2010,07,20,08,00,13.60
2010,07,20,08,01,13.70
2010,07,20,08,02,13.60
2010,07,20,08,03,13.50
2010,07,20,08,04,13.50
2010,07,20,08,05,13.40
2010,07,20,08,06,13.30
2010,07,20,08,07,13.30
2010,07,20,08,08,13.30
2010,07,20,08,09,13.30
2010,07,20,08,10,13.30
2010,07,20,08,11,13.40
2010,07,20,08,12,13.30
2010,07,20,08,13,13.30
2010,07,20,08,14,13.30
2010,07,20,08,15,13.30
2010,07,20,08,16,13.30
2010,07,20,08,17,13.30
2010,07,20,08,18,13.30
2010,07,20,08,19,13.30
2010,07,20,08,20,13.40
2010,07,20,08,21,13.50
2010,07,20,08,22,13.50
2010,07,20,08,23,13.50
2010,07,20,08,24,13.40
2010,07,20,08,25,13.40
2010,07,20,08,26,13.30
2010,07,20,08,27,13.30
2010,07,20,08,28,13.20
2010,07,20,08,29,13.20
2010,07,20,08,30,13.10
2010,07,20,08,31,13.10
2010,07,20,08,32,13.10
2010,07,20,08,33,13.20
2010,07,20,08,34,13.20
2010,07,20,08,35,13.30
2010,07,20,08,36,13.30
2010,07,20,08,37,13.30
2010,07,20,08,38,13.40
2010,07,20,08,39,13.50
2010,07,20,08,40,13.50
2010,07,20,08,41,13.40
2010,07,20,08,42,13.40
2010,07,20,08,43,13.40
2010,07,20,08,44,13.40
2010,07,20,08,45,13.40
2010,07,20,08,46,13.40
2010,07,20,08,47,13.40
2010,07,20,08,48,13.50
2010,07,20,08,49,13.60
2010,07,20,08,50,13.60
2010,07,20,08,51,13.70
2010,07,20,08,52,13.80
2010,07,20,08,53,13.90
2010,07,20,08,54,14.00
2010,07,20,08,55,14.10
2010,07,20,08,56,14.20
2010,07,20,08,57,14.30
2010,07,20,08,58,14.50
2010,07,20,08,59,14.60
2010,07,20,09,00,14.70
2010,07,20,09,01,14.80
2010,07,20,09,02,14.80
2010,07,20,09,03,15.00
2010,07,20,09,04,15.10
2010,07,20,09,05,15.20
2010,07,20,09,06,15.30
2010,07,20,09,07,15.30
2010,07,20,09,08,15.40
2010,07,20,09,09,15.50
2010,07,20,09,10,15.50
2010,07,20,09,11,15.60
2010,07,20,09,12,15.60
2010,07,20,09,13,15.60
2010,07,20,09,14,15.60
2010,07,20,09,15,15.60
2010,07,20,09,16,15.70
2010,07,20,09,17,15.70
2010,07,20,09,18,15.70
2010,07,20,09,19,15.70
2010,07,20,09,20,15.70
2010,07,20,09,21,15.70
2010,07,20,09,22,15.60
2010,07,20,09,23,15.60
2010,07,20,09,24,15.60
2010,07,20,09,25,15.50
2010,07,20,09,26,15.50
2010,07,20,09,27,15.50
2010,07,20,09,28,15.40
2010,07,20,09,29,15.40
2010,07,20,09,30,15.50
2010,07,20,09,31,15.50
2010,07,20,09,32,15.50
2010,07,20,09,33,15.50
2010,07,20,09,34,15.60
2010,07,20,09,35,15.60
2010,07,20,09,36,15.60
2010,07,20,09,37,15.60
2010,07,20,09,38,15.70
2010,07,20,09,39,15.70
2010,07,20,09,40,15.70
2010,07,20,09,41,15.70
2010,07,20,09,42,15.60
2010,07,20,09,43,15.50
2010,07,20,09,44,15.50
2010,07,20,09,45,15.50
2010,07,20,09,46,15.50
2010,07,20,09,47,15.60
2010,07,20,09,48,15.60
2010,07,20,09,49,15.60
2010,07,20,09,50,15.70
2010,07,20,09,51,15.80
2010,07,20,09,52,15.80
2010,07,20,09,53,15.80
2010,07,20,09,54,15.90
2010,07,20,09,55,15.90
2010,07,20,09,56,15.90
2010,07,20,09,57,15.90
2010,07,20,09,58,15.90
2010,07,20,09,59,15.80
2010,07,20,10,00,15.80
2010,07,20,10,01,15.80
2010,07,20,10,02,15.80
2010,07,20,10,03,15.80
2010,07,20,10,04,15.80
2010,07,20,10,05,15.80
2010,07,20,10,06,15.80
2010,07,20,10,07,15.80
2010,07,20,10,08,15.80
2010,07,20,10,09,15.90
2010,07,20,10,10,15.90
2010,07,20,10,11,15.90
2010,07,20,10,12,16.00
2010,07,20,10,13,16.10
2010,07,20,10,14,16.10
2010,07,20,10,15,16.00
2010,07,20,10,16,15.90
2010,07,20,10,17,16.00
2010,07,20,10,18,16.10
2010,07,20,10,19,16.00
2010,07,20,10,20,15.90
2010,07,20,10,21,15.90
2010,07,20,10,22,15.90
2010,07,20,10,23,15.90
2010,07,20,10,24,15.90
2010,07,20,10,25,15.90
2010,07,20,10,26,15.90
2010,07,20,10,27,15.80
2010,07,20,10,28,15.80
2010,07,20,10,29,15.80
2010,07,20,10,30,15.80
2010,07,20,10,31,15.80
2010,07,20,10,32,15.80
2010,07,20,10,33,15.80
2010,07,20,10,34,15.80
2010,07,20,10,35,15.80
2010,07,20,10,36,15.80
2010,07,20,10,37,15.90
2010,07,20,10,38,16.00
2010,07,20,10,39,16.10
2010,07,20,10,40,16.10
2010,07,20,10,41,16.20
2010,07,20,10,42,16.20
2010,07,20,10,43,16.30
2010,07,20,10,44,16.30
2010,07,20,10,45,16.30
2010,07,20,10,46,16.30
2010,07,20,10,47,16.30
2010,07,20,10,48,16.30
2010,07,20,10,49,16.30
2010,07,20,10,50,16.30
2010,07,20,10,51,16.30
2010,07,20,10,52,16.30
2010,07,20,10,53,16.40
2010,07,20,10,54,16.50
2010,07,20,10,55,16.60
2010,07,20,10,56,16.60
2010,07,20,10,57,16.60
2010,07,20,10,58,16.60
2010,07,20,10,59,16.70
2010,07,20,11,00,16.70
2010,07,20,11,01,16.80
2010,07,20,11,02,16.80
2010,07,20,11,03,16.80
2010,07,20,11,04,16.70
2010,07,20,11,05,16.70
2010,07,20,11,06,16.70
2010,07,20,11,07,16.70
2010,07,20,11,08,16.70
2010,07,20,11,09,16.70
2010,07,20,11,10,16.70
2010,07,20,11,11,16.70
2010,07,20,11,12,16.70
2010,07,20,11,13,16.60
2010,07,20,11,14,16.60
2010,07,20,11,15,16.70
2010,07,20,11,16,16.70
2010,07,20,11,17,16.60
2010,07,20,11,18,16.60
2010,07,20,11,19,16.50
2010,07,20,11,20,16.40
2010,07,20,11,21,16.40
2010,07,20,11,22,16.30
2010,07,20,11,23,16.30
2010,07,20,11,24,16.30
2010,07,20,11,25,16.40
2010,07,20,11,26,16.40
2010,07,20,11,27,16.50
2010,07,20,11,28,16.60
2010,07,20,11,29,16.60
2010,07,20,11,30,16.70
2010,07,20,11,31,16.80
2010,07,20,11,32,16.80
2010,07,20,11,33,16.80
2010,07,20,11,34,16.70
2010,07,20,11,35,16.70
2010,07,20,11,36,16.70
2010,07,20,11,37,16.60
2010,07,20,11,38,16.60
2010,07,20,11,39,16.60
2010,07,20,11,40,16.60
2010,07,20,11,41,16.50
2010,07,20,11,42,16.60
2010,07,20,11,43,16.60
2010,07,20,11,44,16.60
2010,07,20,11,45,16.50
2010,07,20,11,46,16.40
2010,07,20,11,47,16.40
2010,07,20,11,48,16.40
2010,07,20,11,49,16.30
2010,07,20,11,50,16.30
2010,07,20,11,51,16.30
2010,07,20,11,52,16.30
2010,07,20,11,53,16.30
2010,07,20,11,54,16.30
2010,07,20,11,55,16.30
2010,07,20,11,56,16.30
2010,07,20,11,57,16.30
2010,07,20,11,58,16.30
2010,07,20,11,59,16.40
2010,07,20,12,00,16.40
2010,07,20,12,01,16.40
2010,07,20,12,02,16.50
2010,07,20,12,03,16.60
2010,07,20,12,04,16.70
2010,07,20,12,05,16.70
2010,07,20,12,06,16.70
2010,07,20,12,07,16.70
2010,07,20,12,08,16.70
2010,07,20,12,09,16.80
2010,07,20,12,10,16.90
2010,07,20,12,11,16.90
2010,07,20,12,12,17.00
2010,07,20,12,13,17.00
2010,07,20,12,14,17.00
2010,07,20,12,15,17.00
2010,07,20,12,16,17.10
2010,07,20,12,17,17.10
2010,07,20,12,18,17.10
2010,07,20,12,19,17.10
2010,07,20,12,20,17.00
2010,07,20,12,21,17.10
2010,07,20,12,22,17.10
2010,07,20,12,23,17.10
2010,07,20,12,24,17.10
2010,07,20,12,25,17.20
2010,07,20,12,26,17.30
2010,07,20,12,27,17.30
2010,07,20,12,28,17.40
2010,07,20,12,29,17.50
2010,07,20,12,30,17.50
2010,07,20,12,31,17.60
2010,07,20,12,32,17.70
2010,07,20,12,33,17.70
2010,07,20,12,34,17.80
2010,07,20,12,35,17.80
2010,07,20,12,36,17.90
2010,07,20,12,37,17.90
2010,07,20,12,38,17.90
2010,07,20,12,39,17.90
2010,07,20,12,40,18.00
2010,07,20,12,41,18.00
2010,07,20,12,42,17.90
2010,07,20,12,43,17.90
2010,07,20,12,44,17.90
2010,07,20,12,45,17.90
2010,07,20,12,46,17.90
2010,07,20,12,47,17.90
2010,07,20,12,48,17.90
2010,07,20,12,49,17.90
2010,07,20,12,50,17.90
2010,07,20,12,51,17.90
2010,07,20,12,52,18.00
2010,07,20,12,53,18.10
2010,07,20,12,54,18.20
2010,07,20,12,55,18.20
2010,07,20,12,56,18.20
2010,07,20,12,57,18.20
2010,07,20,12,58,18.30
2010,07,20,12,59,18.30
2010,07,20,13,00,18.20
2010,07,20,13,01,18.20
2010,07,20,13,02,18.20
2010,07,20,13,03,18.20
2010,07,20,13,04,18.20
2010,07,20,13,05,18.30
2010,07,20,13,06,18.40
2010,07,20,13,07,18.50
2010,07,20,13,08,18.50
2010,07,20,13,09,18.60
2010,07,20,13,10,18.60
2010,07,20,13,11,18.80
2010,07,20,13,12,19.00
2010,07,20,13,13,19.20
2010,07,20,13,14,19.20
2010,07,20,13,15,19.30
2010,07,20,13,16,19.30
2010,07,20,13,17,19.40
2010,07,20,13,18,19.50
2010,07,20,13,19,19.50
2010,07,20,13,20,19.60
2010,07,20,13,21,19.70
2010,07,20,13,22,19.80
2010,07,20,13,23,19.90
2010,07,20,13,24,19.90
2010,07,20,13,25,19.90
2010,07,20,13,26,20.10
2010,07,20,13,27,20.00
2010,07,20,13,28,19.90
2010,07,20,13,29,19.90
2010,07,20,13,30,19.80
2010,07,20,13,31,19.80
2010,07,20,13,32,19.90
2010,07,20,13,33,19.90
2010,07,20,13,34,19.90
2010,07,20,13,35,19.90
2010,07,20,13,36,19.80
2010,07,20,13,37,19.80
2010,07,20,13,38,19.90
2010,07,20,13,39,19.90
2010,07,20,13,40,19.90
2010,07,20,13,41,19.70
2010,07,20,13,42,19.70
2010,07,20,13,43,19.70
2010,07,20,13,44,19.80
2010,07,20,13,45,19.90
2010,07,20,13,46,20.10
2010,07,20,13,47,20.00
2010,07,20,13,48,19.90
2010,07,20,13,49,19.90
2010,07,20,13,50,19.90
2010,07,20,13,51,19.90
2010,07,20,13,52,19.90
2010,07,20,13,53,20.10
2010,07,20,13,54,20.10
2010,07,20,13,55,20.20
2010,07,20,13,56,20.20
2010,07,20,13,57,20.30
2010,07,20,13,58,20.40
2010,07,20,13,59,20.50
2010,07,20,14,00,20.60
2010,07,20,14,01,20.70
2010,07,20,14,02,20.80
2010,07,20,14,03,20.90
2010,07,20,14,04,21.00
2010,07,20,14,05,21.00
2010,07,20,14,06,21.10
2010,07,20,14,07,21.10
2010,07,20,14,08,21.10
2010,07,20,14,09,21.10
2010,07,20,14,10,21.10
2010,07,20,14,11,21.10
2010,07,20,14,12,21.10
2010,07,20,14,13,21.00
2010,07,20,14,14,21.00
2010,07,20,14,15,21.00
2010,07,20,14,16,21.00
2010,07,20,14,17,20.90
2010,07,20,14,18,20.90
2010,07,20,14,19,20.90
2010,07,20,14,20,20.90
2010,07,20,14,21,21.00
2010,07,20,14,22,21.00
2010,07,20,14,23,21.00
2010,07,20,14,24,21.00
2010,07,20,14,25,21.10
2010,07,20,14,26,21.10
2010,07,20,14,27,21.20
2010,07,20,14,28,21.20
2010,07,20,14,29,21.30
2010,07,20,14,30,21.30
2010,07,20,14,31,21.30
2010,07,20,14,32,21.30
2010,07,20,14,33,21.30
2010,07,20,14,34,21.30
2010,07,20,14,35,21.30
2010,07,20,14,36,21.30
2010,07,20,14,37,21.40
2010,07,20,14,38,21.40
2010,07,20,14,39,21.40
2010,07,20,14,40,21.30
2010,07,20,14,41,21.30
2010,07,20,14,42,21.30
2010,07,20,14,43,21.40
2010,07,20,14,44,21.40
2010,07,20,14,45,21.30
2010,07,20,14,46,21.30
2010,07,20,14,47,21.20
2010,07,20,14,48,21.00
2010,07,20,14,49,21.00
2010,07,20,14,50,21.00
2010,07,20,14,51,21.00
2010,07,20,14,52,20.90
2010,07,20,14,53,21.00
2010,07,20,14,54,21.00
2010,07,20,14,55,21.10
2010,07,20,14,56,21.20
2010,07,20,14,57,21.30
2010,07,20,14,58,21.30
2010,07,20,14,59,21.40
2010,07,20,15,00,21.40
2010,07,20,15,01,21.50
2010,07,20,15,02,21.60
2010,07,20,15,03,21.60
2010,07,20,15,04,21.60
2010,07,20,15,05,21.60
2010,07,20,15,06,21.70
2010,07,20,15,07,21.80
2010,07,20,15,08,21.80
2010,07,20,15,09,21.60
2010,07,20,15,10,21.50
2010,07,20,15,11,21.50
2010,07,20,15,12,21.60
2010,07,20,15,13,21.60
2010,07,20,15,14,21.60
2010,07,20,15,15,21.70
2010,07,20,15,16,21.80
2010,07,20,15,17,21.90
2010,07,20,15,18,22.00
2010,07,20,15,19,22.00
2010,07,20,15,20,22.00
2010,07,20,15,21,21.90
2010,07,20,15,22,21.90
2010,07,20,15,23,21.90
2010,07,20,15,24,21.80
2010,07,20,15,25,21.70
2010,07,20,15,26,21.70
2010,07,20,15,27,21.70
2010,07,20,15,28,21.50
2010,07,20,15,29,21.40
2010,07,20,15,30,21.50
2010,07,20,15,31,21.60
2010,07,20,15,32,21.60
2010,07,20,15,33,21.60
2010,07,20,15,34,21.60
2010,07,20,15,35,21.70
2010,07,20,15,36,21.80
2010,07,20,15,37,22.00
2010,07,20,15,38,22.10
2010,07,20,15,39,22.00
2010,07,20,15,40,22.00
2010,07,20,15,41,22.10
2010,07,20,15,42,22.10
2010,07,20,15,43,22.20
2010,07,20,15,44,22.20
2010,07,20,15,45,22.30
2010,07,20,15,46,22.30
2010,07,20,15,47,22.10
2010,07,20,15,48,22.00
2010,07,20,15,49,22.00
2010,07,20,15,50,22.00
2010,07,20,15,51,22.10
2010,07,20,15,52,22.10
2010,07,20,15,53,22.00
2010,07,20,15,54,22.00
2010,07,20,15,55,22.00
2010,07,20,15,56,22.00
2010,07,20,15,57,22.00
2010,07,20,15,58,22.10
2010,07,20,15,59,21.90
2010,07,20,16,00,21.70
2010,07,20,16,01,21.70
2010,07,20,16,02,21.60
2010,07,20,16,03,21.60
2010,07,20,16,04,21.60
2010,07,20,16,05,21.60
2010,07,20,16,06,21.60
2010,07,20,16,07,21.60
2010,07,20,16,08,21.60
2010,07,20,16,09,21.60
2010,07,20,16,10,21.60
2010,07,20,16,11,21.60
2010,07,20,16,12,21.60
2010,07,20,16,13,21.60
2010,07,20,16,14,21.60
2010,07,20,16,15,21.50
2010,07,20,16,16,21.50
2010,07,20,16,17,21.50
2010,07,20,16,18,21.40
2010,07,20,16,19,21.50
2010,07,20,16,20,21.60
2010,07,20,16,21,21.60
2010,07,20,16,22,21.80
2010,07,20,16,23,21.80
2010,07,20,16,24,21.80
2010,07,20,16,25,21.60
2010,07,20,16,26,21.40
2010,07,20,16,27,21.30
2010,07,20,16,28,21.40
2010,07,20,16,29,21.50
2010,07,20,16,30,21.60
2010,07,20,16,31,21.70
2010,07,20,16,32,21.70
2010,07,20,16,33,21.80
2010,07,20,16,34,21.90
2010,07,20,16,35,21.90
2010,07,20,16,36,21.80
2010,07,20,16,37,21.70
2010,07,20,16,38,21.70
2010,07,20,16,39,21.60
2010,07,20,16,40,21.60
2010,07,20,16,41,21.50
2010,07,20,16,42,21.40
2010,07,20,16,43,21.40
2010,07,20,16,44,21.50
2010,07,20,16,45,21.60
2010,07,20,16,46,21.70
2010,07,20,16,47,21.70
2010,07,20,16,48,21.60
2010,07,20,16,49,21.40
2010,07,20,16,50,21.20
2010,07,20,16,51,21.00
2010,07,20,16,52,20.90
2010,07,20,16,53,20.90
2010,07,20,16,54,20.80
2010,07,20,16,55,20.80
2010,07,20,16,56,20.80
2010,07,20,16,57,20.80
2010,07,20,16,58,20.90
2010,07,20,16,59,21.00
2010,07,20,17,00,21.00
2010,07,20,17,01,21.10
2010,07,20,17,02,21.10
2010,07,20,17,03,21.10
2010,07,20,17,04,21.10
2010,07,20,17,05,21.10
2010,07,20,17,06,21.10
2010,07,20,17,07,21.20
2010,07,20,17,08,21.20
2010,07,20,17,09,21.30
2010,07,20,17,10,21.40
2010,07,20,17,11,21.60
2010,07,20,17,12,21.60
2010,07,20,17,13,21.60
2010,07,20,17,14,21.70
2010,07,20,17,15,21.70
2010,07,20,17,16,21.70
2010,07,20,17,17,21.70
2010,07,20,17,18,21.70
2010,07,20,17,19,21.80